Regional Weather Roundup
Issued by NWS

Home | Current Version | Previous Version | Graphics & Text | Print | Product List | Glossary On
Versions: 1 2 3 4 5 6 7 8 9 10 11 12 13 14 15 16 17 18 19 20 21 22 23 24 25 26 27 28 29 30 31 32 33 34 35 36 37 38 39 40 41 42 43 44 45 46 47 48 49 50
000
ASUS43 KIND 152359
RWRIN

WEATHER ROUNDUP FOR INDIANA
NATIONAL WEATHER SERVICE INDIANAPOLIS IN
800 PM EDT MON SEP 15 2014

NOTE: "FAIR" INDICATES FEW OR NO CLOUDS BELOW 12,000 FEET WITH NO
SIGNIFICANT WEATHER AND/OR OBSTRUCTIONS TO VISIBILITY.

* - STATION DOES NOT REPORT WEATHER SUCH AS PRECIPITATION OR FOG.

+ - STATION NOT QUALITY CONTROLLED BY THE NATIONAL WEATHER SERVICE.
    USE DATA WITH CAUTION...ESPECIALLY DEWPOINT AND RELATIVE
    HUMIDITY OBSERVATIONS.

INZ001>003-010>013-019-020-160100-
NORTHWEST INDIANA

CITY           SKY/WX    TMP DP  RH WIND       PRES   REMARKS
KNOX *+        CLOUDY    54  52  93 CALM      30.11R VSB 1
RENSSELAER +   RAIN      54  54 100 CALM      30.11R
VALPARAISO     LGT RAIN  54  52  93 W3        30.12S FOG
6HR MIN TEMP:  54; 6HR MAX TEMP:  57; 6HR PCP:  0.13;


$$

LMZ046-743>745-160100-
SOUTHERN LAKE MICHIGAN

STATION/POSITION TIME  TEMP WIND        PRES
                       AIR  DIR/SP/G
                 (UTC) (F)  (DEG/KT/KT) (MB)
MICHIGAN CITY    2300   56  180/  2/  3   N/A

$$

INZ004-005-014>016-021>024-160100-
NORTH CENTRAL INDIANA

CITY           SKY/WX    TMP DP  RH WIND       PRES   REMARKS
ELKHART        LGT RAIN  55  54  94 CALM      30.10F
GOSHEN         CLOUDY    56  52  86 NW5       30.10F
6HR MIN TEMP:  56; 6HR MAX TEMP:  60; 6HR PCP:  0.09;

SOUTH BEND     CLOUDY    56  53  90 SW3       30.10F
6HR MIN TEMP:  55; 6HR MAX TEMP:  60; 6HR PCP:  0.04;

WARSAW +       DRIZZLE   54  52  94 CALM      30.10F

$$

INZ006>009-017-018-025>027-160100-
NORTHEAST INDIANA

CITY           SKY/WX    TMP DP  RH WIND       PRES   REMARKS
ANGOLA *+      CLOUDY    54  43  66 CALM      30.09F
FORT WAYNE     RAIN      55  53  93 N7        30.11R FOG
6HR MIN TEMP:  55; 6HR MAX TEMP:  59; 6HR PCP:  0.21;


$$

INZ028-029-035-036-043>045-051>053-160100-
WEST CENTRAL INDIANA

CITY           SKY/WX    TMP DP  RH WIND       PRES   REMARKS
GREENCASTLE +  CLOUDY    55  54  94 CALM      30.08S
LAFAYETTE      CLOUDY    56  55  97 CALM      30.10R FOG
6HR MIN TEMP:  55; 6HR MAX TEMP:  58; 6HR PCP:  0.03;

TERRE HAUTE    CLOUDY    58  56  93 E3        30.06F
6HR MIN TEMP:  57; 6HR MAX TEMP:  62; 6HR PCP:  0.72;


$$

INZ030>032-037>040-046>048-054>057-064-065-160100-
CENTRAL INDIANA

CITY           SKY/WX    TMP DP  RH WIND       PRES   REMARKS
COLUMBUS       CLOUDY    57  57 100 S9        30.08R
FRANKFORT +    CLOUDY   N/A N/A N/A CALM      30.11R
INDIANAPOLIS   RAIN      57  54  89 W5        30.08R FOG
6HR MIN TEMP:  55; 6HR MAX TEMP:  63; 6HR PCP:  0.45;

-EAGLE CREEK   CLOUDY    58  54  86 CALM      30.08S
6HR MIN TEMP:  55; 6HR MAX TEMP:  58; 6HR PCP:  0.44;

KOKOMO *+      CLOUDY    57  54  88 CALM      30.10S
MT COMFORT *+  CLOUDY    57  57 100 CALM      30.09S
SHELBYVILLE    LGT RAIN  59  55  87 CALM      30.08S
6HR MIN TEMP:  59; 6HR MAX TEMP:  72; 6HR PCP:  0.38;

ZIONSVILLE +   CLOUDY    57  53  86 CALM      30.10S
6HR MIN TEMP:  56; 6HR MAX TEMP:  59; 6HR PCP:  0.18;


$$

INZ033-034-041-042-049-050-058-059-160100-
EAST CENTRAL INDIANA

CITY           SKY/WX    TMP DP  RH WIND       PRES   REMARKS
MUNCIE         CLOUDY    58  54  86 NW7       30.10R
6HR MIN TEMP:  58; 6HR MAX TEMP:  64; 6HR PCP:  0.10;


$$

INZ060-061-067>069-081>083-085>088-160100-
SOUTHWEST INDIANA

CITY           SKY/WX    TMP DP  RH WIND       PRES   REMARKS
EVANSVILLE     CLOUDY    73  58  59 S5        30.06S
6HR MIN TEMP:  73; 6HR MAX TEMP:  76;


$$

INZ062-063-066-070>080-084-089>092-160100-
SOUTH CENTRAL AND SOUTHEAST INDIANA

CITY           SKY/WX    TMP DP  RH WIND       PRES   REMARKS
BLOOMINGTON    CLOUDY    58  56  93 S7        30.06F
6HR MIN TEMP:  58; 6HR MAX TEMP:  66; 6HR PCP:  0.67;


$$




USA.gov is the U.S. government's official web portal to all federal, state and local government web resources and services.